N511WM KLOU-KCMH

Flight info

Callsign N511WM
Flight time 0h 59m
Altitude 23000
Route SPILR BNGIN PODGY FISUL JAKTZ JAKTZ2
Aircraft BE60/L-SDFGRY/C

Departure

Time 2026-04-27 13:50
Airport Bowman Field (KLOU)

Arrival

Time 2026-04-27 14:50
Airport John Glenn Columbus International Airport (KCMH)
Time Latitude Longitude Altitude Speed Heading
2026-04-27 13:30 38.22540 -85.66726 549 ft 0 kts 328°
2026-04-27 13:41 38.22544 -85.66730 549 ft 2 kts 328°
2026-04-27 13:41 38.22567 -85.66718 549 ft 7 kts 69°
2026-04-27 13:42 38.22598 -85.66647 549 ft 11 kts 61°
2026-04-27 13:42 38.22648 -85.66550 549 ft 13 kts 60°
2026-04-27 13:42 38.22658 -85.66525 549 ft 0 kts 60°
2026-04-27 13:42 38.22674 -85.66518 549 ft 6 kts 340°
2026-04-27 13:43 38.22693 -85.66536 550 ft 6 kts 322°
2026-04-27 13:43 38.22747 -85.66586 550 ft 13 kts 323°
2026-04-27 13:43 38.22843 -85.66676 549 ft 20 kts 324°
2026-04-27 13:43 38.22960 -85.66784 549 ft 19 kts 323°
2026-04-27 13:44 38.23062 -85.66880 549 ft 14 kts 324°
2026-04-27 13:44 38.23099 -85.66911 549 ft 4 kts 359°
2026-04-27 13:44 38.23107 -85.66896 549 ft 0 kts 112°
2026-04-27 13:49 38.23119 -85.66860 549 ft 9 kts 57°
2026-04-27 13:49 38.23081 -85.66794 549 ft 25 kts 145°
2026-04-27 13:49 38.22751 -85.66489 555 ft 87 kts 144°
2026-04-27 13:50 38.22196 -85.65969 722 ft 108 kts 143°
2026-04-27 13:50 38.21572 -85.65355 1065 ft 117 kts 143°
2026-04-27 13:50 38.20958 -85.64686 1498 ft 113 kts 142°
2026-04-27 13:50 38.20456 -85.63990 2041 ft 105 kts 140°
2026-04-27 13:51 38.20137 -85.62996 2168 ft 143 kts 105°
2026-04-27 13:51 38.20496 -85.61728 2480 ft 170 kts 52°
2026-04-27 13:51 38.21572 -85.61109 2834 ft 173 kts 359°
2026-04-27 13:51 38.22698 -85.61466 3167 ft 165 kts 327°
2026-04-27 13:52 38.23728 -85.62079 3485 ft 166 kts 326°
2026-04-27 13:52 38.24793 -85.62695 3846 ft 168 kts 329°
2026-04-27 13:52 38.25895 -85.63291 4109 ft 175 kts 333°
2026-04-27 13:52 38.27048 -85.63816 4389 ft 177 kts 336°
2026-04-27 13:53 38.29367 -85.64855 5069 ft 177 kts 334°
2026-04-27 13:53 38.30518 -85.65390 5403 ft 175 kts 334°
2026-04-27 13:53 38.31657 -85.65924 5732 ft 174 kts 335°
2026-04-27 13:54 38.32797 -85.66453 6074 ft 174 kts 334°
2026-04-27 13:54 38.33934 -85.66983 6424 ft 174 kts 334°
2026-04-27 13:54 38.35065 -85.67515 6733 ft 172 kts 334°
2026-04-27 13:54 38.36191 -85.68037 7057 ft 172 kts 334°
2026-04-27 13:55 38.37317 -85.68562 7378 ft 173 kts 334°
2026-04-27 13:55 38.38064 -85.68911 7591 ft 173 kts 334°
2026-04-27 13:55 38.39198 -85.69442 7916 ft 172 kts 334°
2026-04-27 13:55 38.40320 -85.69965 8251 ft 171 kts 334°
2026-04-27 13:56 38.41435 -85.70486 8595 ft 170 kts 334°
2026-04-27 13:56 38.42546 -85.71008 8922 ft 170 kts 334°
2026-04-27 13:56 38.43649 -85.71522 9285 ft 168 kts 334°
2026-04-27 13:56 38.44748 -85.72035 9624 ft 168 kts 334°
2026-04-27 13:57 38.45847 -85.72549 9961 ft 169 kts 334°
2026-04-27 13:57 38.46951 -85.73066 10277 ft 169 kts 334°
2026-04-27 13:57 38.48056 -85.73584 10590 ft 169 kts 334°
2026-04-27 13:57 38.49165 -85.74104 10903 ft 170 kts 334°
2026-04-27 13:58 38.50280 -85.74627 11240 ft 171 kts 334°
2026-04-27 13:58 38.51398 -85.75150 11558 ft 171 kts 334°
2026-04-27 13:58 38.52517 -85.75674 11899 ft 172 kts 334°
2026-04-27 13:58 38.53644 -85.76203 12225 ft 172 kts 334°
2026-04-27 13:59 38.54771 -85.76733 12560 ft 173 kts 334°
2026-04-27 13:59 38.55904 -85.77263 12886 ft 174 kts 334°
2026-04-27 13:59 38.57042 -85.77798 13209 ft 174 kts 334°
2026-04-27 13:59 38.58181 -85.78333 13557 ft 175 kts 334°
2026-04-27 14:00 38.59330 -85.78872 13875 ft 176 kts 334°
2026-04-27 14:00 38.60486 -85.79415 14163 ft 177 kts 334°
2026-04-27 14:00 38.61646 -85.79961 14469 ft 178 kts 334°
2026-04-27 14:00 38.62805 -85.80504 14783 ft 177 kts 334°
2026-04-27 14:01 38.63962 -85.81049 15093 ft 177 kts 334°
2026-04-27 14:01 38.65123 -85.81596 15413 ft 177 kts 334°
2026-04-27 14:01 38.66267 -85.82136 15738 ft 178 kts 334°
2026-04-27 14:01 38.67431 -85.82682 16075 ft 178 kts 334°
2026-04-27 14:02 38.68592 -85.83229 16406 ft 178 kts 334°
2026-04-27 14:02 38.69752 -85.83776 16738 ft 178 kts 334°
2026-04-27 14:02 38.70914 -85.84323 17076 ft 177 kts 333°
2026-04-27 14:02 38.72072 -85.84869 17405 ft 178 kts 333°
2026-04-27 14:03 38.73232 -85.85419 17736 ft 178 kts 333°
2026-04-27 14:03 38.74391 -85.85965 18065 ft 177 kts 333°
2026-04-27 14:03 38.75547 -85.86510 18396 ft 177 kts 333°
2026-04-27 14:03 38.76702 -85.87054 18687 ft 177 kts 333°
2026-04-27 14:04 38.77854 -85.87599 18987 ft 176 kts 333°
2026-04-27 14:04 38.79003 -85.88142 19276 ft 176 kts 333°
2026-04-27 14:04 38.80149 -85.88684 19573 ft 175 kts 333°
2026-04-27 14:04 38.81277 -85.89216 19868 ft 175 kts 333°
2026-04-27 14:05 38.82431 -85.89763 20178 ft 174 kts 332°
2026-04-27 14:05 38.83554 -85.90294 20467 ft 174 kts 332°
2026-04-27 14:05 38.84689 -85.90832 20763 ft 174 kts 332°
2026-04-27 14:05 38.85819 -85.91366 21056 ft 173 kts 332°
2026-04-27 14:06 38.86941 -85.91896 21345 ft 172 kts 332°
2026-04-27 14:06 38.88062 -85.92427 21634 ft 171 kts 332°
2026-04-27 14:06 38.89167 -85.92952 21910 ft 169 kts 331°
2026-04-27 14:06 38.90265 -85.93474 22181 ft 168 kts 331°
2026-04-27 14:07 38.91358 -85.93992 22454 ft 166 kts 331°
2026-04-27 14:07 38.92442 -85.94505 22718 ft 165 kts 331°
2026-04-27 14:07 38.93512 -85.95012 22960 ft 163 kts 331°
2026-04-27 14:07 38.94603 -85.95535 23027 ft 174 kts 331°
2026-04-27 14:08 38.95779 -85.96098 23036 ft 186 kts 332°
2026-04-27 14:08 38.97030 -85.96690 23041 ft 198 kts 332°
2026-04-27 14:08 38.98359 -85.97321 23043 ft 209 kts 333°
2026-04-27 14:08 38.99757 -85.97984 23041 ft 219 kts 333°
2026-04-27 14:09 39.01211 -85.98674 23040 ft 227 kts 333°
2026-04-27 14:09 39.02695 -85.99379 23040 ft 234 kts 333°
2026-04-27 14:09 39.04241 -86.00114 23040 ft 240 kts 334°
2026-04-27 14:09 39.05880 -86.00680 23054 ft 252 kts 348°
2026-04-27 14:10 39.07672 -86.00498 23042 ft 267 kts
2026-04-27 14:10 39.09394 -85.99473 23048 ft 280 kts 31°
2026-04-27 14:10 39.10761 -85.97640 23045 ft 291 kts 54°
2026-04-27 14:10 39.11520 -85.95193 23052 ft 298 kts 76°
2026-04-27 14:11 39.11913 -85.92555 23046 ft 301 kts 79°
2026-04-27 14:11 39.12279 -85.89896 23047 ft 302 kts 78°
2026-04-27 14:11 39.12660 -85.87238 23046 ft 303 kts 78°
2026-04-27 14:11 39.13050 -85.84599 23046 ft 298 kts 78°
2026-04-27 14:12 39.13427 -85.81976 23045 ft 298 kts 78°
2026-04-27 14:12 39.13808 -85.79356 23045 ft 296 kts 78°
2026-04-27 14:12 39.14182 -85.76751 23039 ft 296 kts 78°
2026-04-27 14:12 39.14574 -85.74145 23038 ft 296 kts 78°
2026-04-27 14:13 39.14949 -85.71570 23037 ft 297 kts 78°
2026-04-27 14:13 39.15324 -85.68955 23037 ft 297 kts 78°
2026-04-27 14:13 39.15701 -85.66331 23037 ft 298 kts 78°
2026-04-27 14:13 39.16082 -85.63695 23037 ft 299 kts 78°
2026-04-27 14:14 39.16462 -85.61058 23038 ft 300 kts 78°
2026-04-27 14:14 39.16841 -85.58416 23037 ft 300 kts 78°
2026-04-27 14:14 39.17222 -85.55762 23042 ft 301 kts 78°
2026-04-27 14:14 39.17601 -85.53113 23041 ft 301 kts 78°
2026-04-27 14:15 39.17981 -85.50457 23041 ft 301 kts 78°
2026-04-27 14:15 39.18360 -85.47798 23040 ft 302 kts 78°
2026-04-27 14:15 39.18738 -85.45136 23040 ft 302 kts 78°
2026-04-27 14:15 39.19119 -85.42473 23044 ft 302 kts 78°
2026-04-27 14:16 39.19497 -85.39810 23046 ft 302 kts 79°
2026-04-27 14:16 39.19873 -85.37147 23048 ft 302 kts 79°
2026-04-27 14:16 39.20250 -85.34482 23048 ft 302 kts 79°
2026-04-27 14:16 39.20627 -85.31812 23047 ft 302 kts 79°
2026-04-27 14:17 39.21002 -85.29153 23075 ft 302 kts 79°
2026-04-27 14:17 39.21379 -85.26483 23077 ft 302 kts 79°
2026-04-27 14:17 39.21752 -85.23825 23077 ft 302 kts 79°
2026-04-27 14:17 39.22126 -85.21162 23077 ft 302 kts 79°
2026-04-27 14:18 39.22499 -85.18494 23075 ft 302 kts 79°
2026-04-27 14:18 39.22865 -85.15866 23074 ft 302 kts 79°
2026-04-27 14:18 39.23238 -85.13200 23073 ft 302 kts 79°
2026-04-27 14:18 39.23610 -85.10533 23074 ft 302 kts 79°
2026-04-27 14:19 39.23981 -85.07862 23073 ft 302 kts 79°
2026-04-27 14:19 39.24351 -85.05195 23072 ft 302 kts 79°
2026-04-27 14:19 39.24720 -85.02535 23077 ft 302 kts 79°
2026-04-27 14:19 39.25090 -84.99858 23072 ft 302 kts 80°
2026-04-27 14:20 39.25457 -84.97202 23068 ft 301 kts 80°
2026-04-27 14:20 39.25824 -84.94536 23072 ft 301 kts 80°
2026-04-27 14:20 39.26190 -84.91883 23072 ft 301 kts 80°
2026-04-27 14:20 39.26554 -84.89219 23076 ft 300 kts 80°
2026-04-27 14:21 39.26919 -84.86569 23076 ft 300 kts 80°
2026-04-27 14:21 39.27278 -84.83948 23077 ft 299 kts 80°
2026-04-27 14:21 39.27639 -84.81301 23094 ft 300 kts 80°
2026-04-27 14:21 39.27999 -84.78653 23095 ft 299 kts 80°
2026-04-27 14:22 39.28360 -84.76005 23101 ft 299 kts 80°
2026-04-27 14:22 39.28720 -84.73361 23103 ft 299 kts 80°
2026-04-27 14:22 39.29079 -84.70716 23105 ft 299 kts 80°
2026-04-27 14:22 39.29438 -84.68065 23107 ft 299 kts 80°
2026-04-27 14:23 39.29795 -84.65427 23104 ft 299 kts 80°
2026-04-27 14:23 39.30152 -84.62777 23106 ft 299 kts 80°
2026-04-27 14:23 39.30507 -84.60138 23107 ft 298 kts 80°
2026-04-27 14:23 39.30862 -84.57501 23107 ft 298 kts 80°
2026-04-27 14:24 39.31216 -84.54863 23107 ft 298 kts 81°
2026-04-27 14:24 39.31570 -84.52227 23106 ft 298 kts 81°
2026-04-27 14:24 39.31923 -84.49585 23106 ft 298 kts 81°
2026-04-27 14:24 39.32274 -84.46953 23106 ft 298 kts 81°
2026-04-27 14:25 39.32620 -84.44351 23105 ft 298 kts 81°
2026-04-27 14:25 39.32971 -84.41716 23107 ft 298 kts 81°
2026-04-27 14:25 39.33323 -84.39074 23106 ft 298 kts 81°
2026-04-27 14:25 39.33671 -84.36441 23090 ft 298 kts 81°
2026-04-27 14:26 39.34020 -84.33805 23084 ft 298 kts 81°
2026-04-27 14:26 39.34370 -84.31163 23084 ft 298 kts 81°
2026-04-27 14:26 39.34717 -84.28528 23083 ft 297 kts 81°
2026-04-27 14:26 39.35063 -84.25894 23082 ft 297 kts 81°
2026-04-27 14:27 39.35409 -84.23261 23082 ft 297 kts 81°
2026-04-27 14:27 39.35756 -84.20627 23090 ft 297 kts 81°
2026-04-27 14:27 39.36098 -84.17992 23090 ft 297 kts 81°
2026-04-27 14:27 39.36444 -84.15352 23090 ft 298 kts 81°
2026-04-27 14:28 39.36784 -84.12750 23094 ft 298 kts 81°
2026-04-27 14:28 39.37127 -84.10113 23093 ft 297 kts 81°
2026-04-27 14:28 39.37470 -84.07476 23093 ft 297 kts 81°
2026-04-27 14:28 39.37812 -84.04842 23109 ft 297 kts 81°
2026-04-27 14:29 39.38153 -84.02208 23108 ft 297 kts 81°
2026-04-27 14:29 39.38494 -83.99570 23110 ft 297 kts 81°
2026-04-27 14:29 39.38833 -83.96937 23112 ft 297 kts 81°
2026-04-27 14:29 39.39278 -83.94331 23109 ft 298 kts 70°
2026-04-27 14:30 39.40152 -83.91910 23111 ft 297 kts 62°
2026-04-27 14:30 39.41079 -83.89513 23113 ft 298 kts 63°
2026-04-27 14:30 39.41988 -83.87114 23122 ft 298 kts 63°
2026-04-27 14:30 39.42904 -83.84706 23122 ft 298 kts 63°
2026-04-27 14:31 39.43821 -83.82306 23125 ft 297 kts 63°
2026-04-27 14:31 39.44736 -83.79908 23126 ft 297 kts 63°
2026-04-27 14:31 39.45651 -83.77505 23125 ft 297 kts 63°
2026-04-27 14:31 39.46564 -83.75105 23125 ft 297 kts 63°
2026-04-27 14:32 39.47476 -83.72704 23125 ft 297 kts 63°
2026-04-27 14:32 39.48387 -83.70305 23125 ft 297 kts 63°
2026-04-27 14:32 39.49297 -83.67909 23125 ft 297 kts 63°
2026-04-27 14:32 39.50195 -83.65543 23125 ft 297 kts 63°
2026-04-27 14:33 39.51105 -83.63138 23125 ft 297 kts 63°
2026-04-27 14:33 39.52014 -83.60740 23127 ft 297 kts 63°
2026-04-27 14:33 39.52921 -83.58342 23128 ft 297 kts 64°
2026-04-27 14:33 39.53828 -83.55943 23129 ft 297 kts 64°
2026-04-27 14:34 39.54738 -83.53533 22910 ft 304 kts 64°
2026-04-27 14:34 39.55699 -83.50986 22294 ft 323 kts 64°
2026-04-27 14:34 39.56705 -83.48315 21697 ft 336 kts 64°
2026-04-27 14:34 39.57746 -83.45546 21118 ft 347 kts 64°
2026-04-27 14:35 39.58643 -83.43366 21322 ft 179 kts 57°
2026-04-27 14:35 39.59242 -83.41707 20781 ft 231 kts 77°
2026-04-27 14:35 39.59587 -83.39502 20289 ft 266 kts 81°
2026-04-27 14:35 39.60296 -83.37166 19768 ft 294 kts 55°
2026-04-27 14:36 39.61815 -83.35293 19230 ft 311 kts 31°
2026-04-27 14:36 39.63776 -83.33957 18686 ft 325 kts 23°
2026-04-27 14:36 39.65814 -83.32802 18093 ft 309 kts 21°
2026-04-27 14:36 39.67686 -83.31682 17447 ft 286 kts 25°
2026-04-27 14:37 39.69390 -83.30522 16806 ft 267 kts 27°
2026-04-27 14:37 39.70991 -83.29435 16186 ft 253 kts 26°
2026-04-27 14:37 39.72535 -83.28444 15580 ft 242 kts 22°
2026-04-27 14:37 39.74036 -83.27601 15002 ft 235 kts 22°
2026-04-27 14:38 39.75505 -83.26756 14431 ft 228 kts 23°
2026-04-27 14:38 39.76935 -83.25923 13868 ft 223 kts 24°
2026-04-27 14:38 39.78334 -83.25111 13256 ft 218 kts 24°
2026-04-27 14:38 39.79707 -83.24317 12657 ft 213 kts 24°
2026-04-27 14:39 39.81053 -83.23541 12079 ft 210 kts 25°
2026-04-27 14:39 39.82376 -83.22775 11524 ft 206 kts 25°
2026-04-27 14:39 39.83669 -83.22028 10992 ft 201 kts 26°
2026-04-27 14:39 39.84936 -83.21294 10468 ft 197 kts 27°
2026-04-27 14:40 39.86229 -83.20733 9915 ft 197 kts
2026-04-27 14:40 39.87592 -83.20700 9346 ft 196 kts
2026-04-27 14:40 39.88946 -83.20691 8834 ft 193 kts
2026-04-27 14:40 39.90277 -83.20602 8289 ft 191 kts
2026-04-27 14:41 39.91603 -83.20499 7783 ft 190 kts
2026-04-27 14:41 39.92921 -83.20402 7295 ft 189 kts
2026-04-27 14:41 39.94234 -83.20310 6812 ft 188 kts
2026-04-27 14:41 39.95536 -83.20217 6312 ft 187 kts
2026-04-27 14:42 39.96834 -83.20125 5802 ft 186 kts
2026-04-27 14:42 39.98118 -83.20017 5377 ft 184 kts
2026-04-27 14:42 39.99298 -83.19452 4971 ft 179 kts 36°
2026-04-27 14:42 40.00181 -83.18359 4563 ft 172 kts 60°
2026-04-27 14:43 40.00647 -83.17065 4277 ft 152 kts 82°
2026-04-27 14:43 40.00748 -83.15740 3986 ft 144 kts 101°
2026-04-27 14:43 40.00702 -83.14451 3738 ft 146 kts 94°
2026-04-27 14:43 40.00647 -83.13149 3476 ft 143 kts 104°
2026-04-27 14:44 40.00552 -83.11857 3292 ft 141 kts 102°
2026-04-27 14:44 40.00473 -83.10607 3288 ft 136 kts 101°
2026-04-27 14:44 40.00403 -83.09381 3270 ft 133 kts 102°
2026-04-27 14:44 40.00339 -83.08248 3284 ft 119 kts 102°
2026-04-27 14:45 40.00287 -83.07225 3241 ft 110 kts 103°
2026-04-27 14:45 40.00231 -83.06221 3106 ft 113 kts 103°
2026-04-27 14:45 40.00173 -83.05185 2953 ft 116 kts 103°
2026-04-27 14:45 40.00108 -83.04154 2808 ft 117 kts 104°
2026-04-27 14:46 40.00050 -83.03086 2664 ft 118 kts 103°
2026-04-27 14:46 39.99990 -83.02022 2503 ft 116 kts 104°
2026-04-27 14:46 39.99934 -83.01011 2348 ft 110 kts 103°
2026-04-27 14:46 39.99880 -83.00032 2210 ft 108 kts 102°
2026-04-27 14:47 39.99829 -82.99072 2067 ft 103 kts 103°
2026-04-27 14:47 39.99771 -82.98150 1931 ft 102 kts 102°
2026-04-27 14:47 39.99721 -82.97240 1797 ft 100 kts 102°
2026-04-27 14:47 39.99673 -82.96357 1664 ft 95 kts 102°
2026-04-27 14:48 39.99628 -82.95518 1537 ft 91 kts 99°
2026-04-27 14:48 39.99539 -82.93939 1307 ft 85 kts 102°
2026-04-27 14:48 39.99496 -82.93169 1197 ft 86 kts 100°
2026-04-27 14:49 39.99450 -82.92378 1078 ft 88 kts 101°
2026-04-27 14:49 39.99405 -82.91589 964 ft 86 kts 100°
2026-04-27 14:49 39.99364 -82.90835 830 ft 78 kts 101°
2026-04-27 14:49 39.99323 -82.90209 811 ft 61 kts 101°
2026-04-27 14:50 39.99300 -82.89735 812 ft 33 kts 89°
2026-04-27 14:50 39.99302 -82.89614 813 ft 12 kts 98°
2026-04-27 14:50 39.99284 -82.89450 811 ft 25 kts 96°
2026-04-27 14:50 39.99278 -82.89201 813 ft 26 kts 74°
2026-04-27 14:51 39.99423 -82.89133 814 ft 26 kts 329°
2026-04-27 14:51 39.99588 -82.89176 816 ft 17 kts 359°
2026-04-27 14:51 39.99663 -82.89119 815 ft 13 kts 104°
2026-04-27 14:51 39.99638 -82.89094 816 ft 5 kts 181°
2026-04-27 14:52 39.99626 -82.89094 816 ft 0 kts 181°